Regional Weather Roundup
Issued by NWS

Home | Current Version | Previous Version | Text Only | Print | Product List | Glossary Off
Versions: 1 2 3 4 5 6 7 8 9 10 11 12 13 14 15 16 17 18 19 20 21 22 23 24 25 26 27 28 29 30 31 32 33 34 35 36 37 38 39 40 41 42 43 44 45 46 47 48 49 50

000
ASUS43 KLMK 242210
RWRKY
KENTUCKY REGIONAL WEATHER ROUNDUP
NATIONAL WEATHER SERVICE LOUISVILLE KY
600 PM EDT SUN JUL 24 2016

NOTE "FAIR" INDICATES FEW OR NO CLOUDS BELOW 12,000 FEET
WITH NO SIGNIFICANT WEATHER AND/OR OBSTRUCTIONS TO VISIBILITY.

KYZ001>023-026-027-061>063-070>075-242300-
WESTERN AND SOUTH CENTRAL KENTUCKY

CITY           SKY/WX    TMP DP  RH WIND       PRES   REMARKS
PADUCAH        PTSUNNY   92  76  59 S6        29.94F HX 104
HENDERSON      MOSUNNY   91  75  59 S6        29.94F HX 102
OWENSBORO      SUNNY     93  78  61 SW6       29.97S HX 108
HOPKINSVILLE   SUNNY     92  75  57 SW5       29.96F HX 102
BOWLING GREEN  SUNNY     92  73  53 W3        29.97F HX 100
GLASGOW        SUNNY     91  73  54 SW3       29.99F HX  99
$$

KYZ024-025-028>034-038-045-046-053-242300-
NORTH CENTRAL KENTUCKY

CITY           SKY/WX    TMP DP  RH WIND       PRES   REMARKS
LOUISVILLE/SDF PTSUNNY   94  71  47 SW6       29.97S HX 101
LOUISVILLE/LOU MOSUNNY   93  71  48 SW7       29.97S HX 100
FORT KNOX      MOSUNNY   91  75  59 S6        29.98  HAZE    HX 101
$$

KYZ035>037-039>044-047>052-055>060-089>105-242300-
NORTHEAST KENTUCKY

CITY           SKY/WX    TMP DP  RH WIND       PRES   REMARKS
LEXINGTON      MOSUNNY   92  72  51 W7        30.01S HX  99
COVINGTON      MOSUNNY   93  73  52 SW8       29.98F HX 102
FRANKFORT      MOSUNNY   92  73  53 SW12      29.99S HX 100
$$

KYZ054-064>069-076>088-106>120-242300-
SOUTHEAST KENTUCKY

CITY           SKY/WX    TMP DP  RH WIND       PRES   REMARKS
JACKSON        MOSUNNY   90  74  59 CALM      30.04S HX  99
LONDON         SUNNY     91  68  46 W6        30.03S HX  95
SOMERSET       MOSUNNY   88  70  55 W5        30.02F HX  92
MIDDLESBORO    SUNNY     92  72  51 NW3       30.02S HX 100
MONTICELLO     CLEAR    N/A N/A N/A NW3       30.03F
$$




USA.gov is the U.S. government's official web portal to all federal, state and local government web resources and services.